User: anonymous   Login
Location: Mat�lon
(46.2791°N, 7.1028°E)
Time: 16:11:31
(UTC+00:00)
Language:

Cosmos 1437 - Orbit

View from above orbital plane
View from above orbital plane
View from above satellite
View from above satellite

Ground track
Ground track

The orbit data is extracted from the following two-line orbital elements,

1 13770U 83003A   21173.84919408  .00026864  00000-0  16790-3 0  9991
2 13770  81.1529 121.7897 0004004  77.4313 282.7396 15.76678738115297
Epoch (UTC): 22 June 2021 20:22:50
Eccentricity: 0.0004004
inclination: 81.1529°
perigee height: 337 km
apogee height: 342 km
right ascension of ascending node: 121.7897°
argument of perigee: 77.4313°
revolutions per day: 15.76678738
mean anomaly at epoch: 282.7396°
orbit number at epoch: 11529

The dashed part of the orbit path shows where the satellite is in the earth's shadow,  

DLR